Showing default

HAWK-8B, 59445

Orbit data source: Space-Track

HAWK-8B, 59445 is a payload satellite owned by HawkEye 360 (US) in LEO that was launched on Sun, 07 Apr 2024 UTC via an FALCON 9 launch vehicle from the Air Force Eastern Test Range (AFETR). Payload-class satellites include a variety of spacecraft equipped with specific instruments for various scientific and technological missions. These include communications satellites like Starlink; space stations such as the ISS; scientific satellites like the Hubble; Earth observation satellites from companies like Planet Labs, Umbra, and HawkEye 360; GPS; miniature CubeSats for education and research; and military/defense satellites.

Loading next visibility...
Identifier
59445, 2024-066D
Orbit
LEO
Last TLE update
5 hours ago
Origin
Manufacturer
UTIAS-SFL
Mission
Operational spacecraft
Bus & Motor
HAWK2G, Unknown motor
Mass
31 kg wet, 30 kg dry
Launch date (UTC)
2024-04-07 (1 year ago)
Launch vehicle
FALCON 9
Launch site
Air Force Eastern Test Range (AFETR)
Object type
Payload
Rocket body
Debris
Shape & HBR
Unknown
Radar Cross Section
Medium (>0.1 m² and <1 m²)

Expand to show TLE details & history

TLE from 5 hours ago
0 HAWK-8B
1 59445U 24066D   25129.19810774  .00002925  00000-0  27202-3 0  9995
2 59445  45.6192 202.8863 0002715  44.0177 316.0919 14.96688887 59247
Epoch: 2025-05-09T04:45Z
Definitive object data (Epoch: 2025-05-09T04:45:16.508Z)
Latitude
-0.00005°
Longitude
-95.69023°
Altitude
575.842 km
Speed
7.575 km/s
True Right ascension
13h 31m 32s
True Declination
0° 00' 00"
Sunlit
Object was in full shadow at TLE epoch
Visualization TLE readout
Latitude
-7.82871°
Longitude
-104.40142°
Altitude
577.488 km
Speed
7.574 km/s
Apparent Right ascension
10h 11m 50s
Apparent Declination
-35° 30' 58"
Sunlit
Object is in full shadow
Visualization observer readout
Local Sidereal Time
17:40:03
Azimuth
251.701° W
Elevation
-37.383°
Doppler factor
1
Orbital elements
Apogee altitude
580.509 km
Perigee altitude
576.732 km
Semi-major axis
6,956.757 km
Eccentricity
0.0002715
Inclination
45.6192°
RAAN
202.8863°
Arg. of periapsis
44.0177°
True anomaly
316.07032°
Mean anomaly
316.0919°
Eccentric anomaly
316.08111°
Mean motion
3.74053 °/min
BSTAR
0.00027202
Orbital period
96.24 mins
Loading maneuver chart data...
Loading SW <> Apogee altitude chart data...
Loading historical data...
Loading historical data...
Loading historical data...
Loading historical data...
Loading historical data...
Loading historical data...
Loading historical data...

HAWK-8B Visibility forecast

Observer location: undefined°, undefined°

Span
Click to sort rows by Start time (UTC) header in descending order
Start Az.
Max El. time (UTC)
Max El. Az.
Max El.
End time (UTC)
End Az.
7 mins2025-05-09 09:49:42.727Z269.227° W2025-05-09 09:53:42.727Z5.199° NNE37.312°2025-05-09 09:56:42.727Z58.279° ENE
6 mins2025-05-09 11:31:42.727Z300.7° NW2025-05-09 11:34:42.727Z3.793° NNE31.756°2025-05-09 11:37:42.727Z66.488° ENE
7 mins2025-05-09 13:12:42.727Z298.722° NW2025-05-09 13:15:42.727Z350.036° N43.261°2025-05-09 13:19:42.727Z106.956° ESE
5 mins2025-05-09 14:54:42.727Z258.039° W2025-05-09 14:56:42.727Z215.125° SW24.534°2025-05-09 14:59:42.727Z164.393° S
6 mins2025-05-10 08:12:42.727Z231.886° WSW2025-05-10 08:15:42.727Z116.647° SE42.875°2025-05-10 08:18:42.727Z69.205° E
|